2016-03-26 00:01:01 r, 17.80m,0000000007Hz,0000069071c,0000000.150s, 011.9C,00002195
2016-03-26 00:11:04 r, 17.79m,0000000006Hz,0000068168c,0000000.148s, 011.6C,00002195
2016-03-26 00:21:02 r, 17.78m,0000000007Hz,0000067367c,0000000.146s, 011.6C,00002195
2016-03-26 00:31:01 r, 17.78m,0000000007Hz,0000067242c,0000000.146s, 011.6C,00002195
2016-03-26 00:41:04 r, 17.78m,0000000007Hz,0000067190c,0000000.146s, 011.2C,00002195
2016-03-26 00:51:01 r, 17.77m,0000000007Hz,0000067037c,0000000.145s, 011.2C,00002195
2016-03-26 01:01:01 r, 17.77m,0000000007Hz,0000066989c,0000000.145s, 011.2C,00002195
2016-03-26 01:11:01 r, 17.77m,0000000007Hz,0000066870c,0000000.145s, 010.9C,00002195
2016-03-26 01:21:03 r, 17.76m,0000000007Hz,0000066483c,0000000.144s, 010.9C,00002195
2016-03-26 01:31:01 r, 17.76m,0000000007Hz,0000066238c,0000000.144s, 010.6C,00002195
2016-03-26 01:41:03 r, 17.76m,0000000007Hz,0000066188c,0000000.144s, 010.6C,00002195
2016-03-26 01:51:01 r, 17.76m,0000000007Hz,0000066084c,0000000.143s, 010.6C,00002195
2016-03-26 02:01:01 r, 17.75m,0000000007Hz,0000065934c,0000000.143s, 010.6C,00002195
2016-03-26 02:11:03 r, 17.76m,0000000007Hz,0000066123c,0000000.143s, 010.3C,00002195
2016-03-26 02:21:01 r, 17.75m,0000000007Hz,0000065282c,0000000.142s, 010.3C,00002195
2016-03-26 02:31:01 r, 17.75m,0000000007Hz,0000065177c,0000000.141s, 009.9C,00002195
2016-03-26 02:41:01 r, 17.72m,0000000007Hz,0000063418c,0000000.138s, 009.9C,00002195
2016-03-26 02:51:02 r, 17.74m,0000000007Hz,0000064274c,0000000.139s, 009.9C,00002195
2016-03-26 03:01:01 r, 17.70m,0000000007Hz,0000062379c,0000000.135s, 009.6C,00002195
2016-03-26 03:11:04 r, 17.68m,0000000007Hz,0000061361c,0000000.133s, 009.6C,00002195
2016-03-26 03:21:02 r, 17.65m,0000000007Hz,0000059518c,0000000.129s, 009.6C,00002195
2016-03-26 03:31:01 r, 17.58m,0000000008Hz,0000055595c,0000000.121s, 009.6C,00002195
2016-03-26 03:41:01 r, 17.38m,0000000010Hz,0000046843c,0000000.102s, 009.6C,00002195
2016-03-26 03:51:03 r, 17.46m,0000000009Hz,0000050152c,0000000.109s, 009.6C,00002195
2016-03-26 04:01:01 r, 17.56m,0000000008Hz,0000055031c,0000000.119s, 009.6C,00002195
2016-03-26 04:11:01 r, 17.73m,0000000007Hz,0000064174c,0000000.139s, 009.6C,00002195
2016-03-26 04:21:04 r, 17.72m,0000000007Hz,0000063469c,0000000.138s, 009.3C,00002195
2016-03-26 04:31:01 r, 17.62m,0000000008Hz,0000057681c,0000000.125s, 009.3C,00002195
2016-03-26 04:41:04 r, 17.56m,0000000008Hz,0000054742c,0000000.119s, 009.3C,00002195
2016-03-26 04:51:02 r, 17.66m,0000000008Hz,0000060213c,0000000.131s, 009.3C,00002195
2016-03-26 05:01:01 r, 17.75m,0000000007Hz,0000065429c,0000000.142s, 009.0C,00002195
2016-03-26 05:11:04 r, 17.77m,0000000007Hz,0000066772c,0000000.145s, 009.0C,00002195
2016-03-26 05:21:02 r, 17.77m,0000000007Hz,0000066898c,0000000.145s, 009.0C,00002195
2016-03-26 05:31:01 r, 17.76m,0000000007Hz,0000066492c,0000000.144s, 009.0C,00002195
2016-03-26 05:41:01 r, 17.78m,0000000007Hz,0000067106c,0000000.146s, 009.0C,00002195
2016-03-26 05:51:02 r, 17.76m,0000000007Hz,0000066274c,0000000.144s, 008.7C,00002195
2016-03-26 06:01:01 r, 17.72m,0000000007Hz,0000063476c,0000000.138s, 008.7C,00002195
2016-03-26 06:11:03 r, 17.56m,0000000009Hz,0000054620c,0000000.119s, 008.7C,00002195
2016-03-26 06:21:02 r, 17.07m,0000000014Hz,0000034845c,0000000.076s, 008.7C,00002195
2016-03-26 06:31:01 r, 15.99m,0000000036Hz,0000012877c,0000000.028s, 008.7C,00002195
2016-03-26 06:41:01 r, 14.11m,0000000202Hz,0000000000c,0000000.000s, 008.3C,00002195
2016-03-26 06:51:02 r, 11.96m,0000001459Hz,0000000000c,0000000.000s, 008.3C,00002195
2016-03-26 07:01:01 r, 09.99m,0000008999Hz,0000000000c,0000000.000s, 008.7C,00002195
2016-03-26 07:11:04 r, 08.42m,0000038348Hz,0000000000c,0000000.000s, 008.7C,00002195
2016-03-26 07:21:02 r, 07.33m,0000104218Hz,0000000000c,0000000.000s, 008.7C,00002195
2016-03-26 07:31:01 r, 06.58m,0000207038Hz,0000000000c,0000000.000s, 008.7C,00002195
2016-03-26 07:41:01 r, 06.08m,0000328454Hz,0000000000c,0000000.000s, 008.7C,00002195
2016-03-26 07:51:02 r, 00.00m,0000446863Hz,0000000000c,0000000.000s, 008.7C,00002195
2016-03-26 08:01:01 r, 00.00m,0000556244Hz,0000000000c,0000000.000s, 009.0C,00002195
2016-03-26 08:11:01 r, 00.00m,0000561659Hz,0000000000c,0000000.000s, 009.0C,00002195
2016-03-26 08:21:03 r, 00.00m,0000561617Hz,0000000000c,0000000.000s, 009.3C,00002195
2016-03-26 08:31:01 r, 00.00m,0000561682Hz,0000000000c,0000000.000s, 009.6C,00002195
2016-03-26 08:41:01 r, 00.00m,0000561810Hz,0000000000c,0000000.000s, 009.9C,00002195
2016-03-26 08:51:04 r, 00.00m,0000561768Hz,0000000000c,0000000.000s, 010.3C,00002195
2016-03-26 09:01:01 r, 00.00m,0000561744Hz,0000000000c,0000000.000s, 010.6C,00002195
2016-03-26 09:11:01 r, 00.00m,0000562041Hz,0000000000c,0000000.000s, 011.6C,00002195
2016-03-26 09:21:04 r, 00.00m,0000562356Hz,0000000000c,0000000.000s, 013.8C,00002195
2016-03-26 09:31:02 r, 00.00m,0000562673Hz,0000000000c,0000000.000s, 016.4C,00002195
2016-03-26 09:41:01 r, 00.00m,0000562881Hz,0000000000c,0000000.000s, 018.3C,00002195
2016-03-26 09:51:03 r, 00.00m,0000563126Hz,0000000000c,0000000.000s, 019.9C,00002195
2016-03-26 10:01:02 r, 00.00m,0000563351Hz,0000000000c,0000000.000s, 021.2C,00002195
2016-03-26 10:11:01 r, 00.00m,0000563487Hz,0000000000c,0000000.000s, 022.8C,00002195
2016-03-26 10:21:01 r, 00.00m,0000563624Hz,0000000000c,0000000.000s, 024.1C,00002195
2016-03-26 10:31:04 r, 00.00m,0000563743Hz,0000000000c,0000000.000s, 024.8C,00002195
2016-03-26 10:41:01 r, 00.00m,0000563821Hz,0000000000c,0000000.000s, 025.7C,00002195
2016-03-26 10:51:02 r, 00.00m,0000563922Hz,0000000000c,0000000.000s, 026.7C,00002195
2016-03-26 11:01:01 r, 00.00m,0000563983Hz,0000000000c,0000000.000s, 026.7C,00002195
2016-03-26 11:11:01 r, 00.00m,0000564047Hz,0000000000c,0000000.000s, 027.0C,00002195
2016-03-26 11:21:01 r, 00.00m,0000564066Hz,0000000000c,0000000.000s, 027.3C,00002195
2016-03-26 11:31:03 r, 00.00m,0000564096Hz,0000000000c,0000000.000s, 027.7C,00002195
2016-03-26 11:41:01 r, 00.00m,0000564154Hz,0000000000c,0000000.000s, 028.0C,00002195
2016-03-26 11:51:02 r, 00.00m,0000564278Hz,0000000000c,0000000.000s, 028.3C,00002195
2016-03-26 12:01:03 r, 00.00m,0000564336Hz,0000000000c,0000000.000s, 029.0C,00002195
2016-03-26 12:11:01 r, 00.00m,0000564409Hz,0000000000c,0000000.000s, 029.9C,00002195
2016-03-26 12:21:02 r, 00.00m,0000564439Hz,0000000000c,0000000.000s, 030.6C,00002195
2016-03-26 12:31:02 r, 00.00m,0000564400Hz,0000000000c,0000000.000s, 029.9C,00002195
2016-03-26 12:41:01 r, 00.00m,0000564438Hz,0000000000c,0000000.000s, 030.2C,00002195
2016-03-26 12:51:02 r, 00.00m,0000564477Hz,0000000000c,0000000.000s, 030.2C,00002195
2016-03-26 13:01:04 r, 00.00m,0000564530Hz,0000000000c,0000000.000s, 030.6C,00002195
2016-03-26 13:11:02 r, 00.00m,0000564575Hz,0000000000c,0000000.000s, 030.6C,00002195
2016-03-26 13:21:02 r, 00.00m,0000564601Hz,0000000000c,0000000.000s, 030.9C,00002195
2016-03-26 13:31:03 r, 00.00m,0000564685Hz,0000000000c,0000000.000s, 031.2C,00002195
2016-03-26 13:41:01 r, 00.00m,0000564549Hz,0000000000c,0000000.000s, 030.9C,00002195
2016-03-26 13:51:02 r, 00.00m,0000564504Hz,0000000000c,0000000.000s, 030.2C,00002195
2016-03-26 14:01:03 r, 00.00m,0000564565Hz,0000000000c,0000000.000s, 030.9C,00002195
2016-03-26 14:11:01 r, 00.00m,0000564668Hz,0000000000c,0000000.000s, 031.5C,00002195
2016-03-26 14:21:02 r, 00.00m,0000564651Hz,0000000000c,0000000.000s, 031.9C,00002195
2016-03-26 14:31:01 r, 00.00m,0000564719Hz,0000000000c,0000000.000s, 031.5C,00002195
2016-03-26 14:41:01 r, 00.00m,0000564651Hz,0000000000c,0000000.000s, 031.2C,00002195
2016-03-26 14:51:02 r, 00.00m,0000564646Hz,0000000000c,0000000.000s, 031.2C,00002195
2016-03-26 15:01:04 r, 00.00m,0000564635Hz,0000000000c,0000000.000s, 031.2C,00002195
2016-03-26 15:11:01 r, 00.00m,0000564735Hz,0000000000c,0000000.000s, 031.5C,00002195
2016-03-26 15:21:04 r, 00.00m,0000564538Hz,0000000000c,0000000.000s, 030.9C,00002195
2016-03-26 15:31:02 r, 00.00m,0000564548Hz,0000000000c,0000000.000s, 030.9C,00002195
2016-03-26 15:41:01 r, 00.00m,0000564547Hz,0000000000c,0000000.000s, 030.6C,00002195
2016-03-26 15:51:04 r, 00.00m,0000564399Hz,0000000000c,0000000.000s, 030.2C,00002195
2016-03-26 16:01:02 r, 00.00m,0000564297Hz,0000000000c,0000000.000s, 029.9C,00002195
2016-03-26 16:11:01 r, 00.00m,0000564240Hz,0000000000c,0000000.000s, 029.6C,00002195
2016-03-26 16:21:02 r, 00.00m,0000564290Hz,0000000000c,0000000.000s, 029.3C,00002195
2016-03-26 16:31:03 r, 00.00m,0000564175Hz,0000000000c,0000000.000s, 029.3C,00002195
2016-03-26 16:41:01 r, 00.00m,0000564111Hz,0000000000c,0000000.000s, 028.6C,00002195
2016-03-26 16:51:02 r, 00.00m,0000564079Hz,0000000000c,0000000.000s, 028.0C,00002195
2016-03-26 17:01:02 r, 00.00m,0000563925Hz,0000000000c,0000000.000s, 027.0C,00002195
2016-03-26 17:11:03 r, 00.00m,0000563926Hz,0000000000c,0000000.000s, 026.7C,00002195
2016-03-26 17:21:01 r, 00.00m,0000563754Hz,0000000000c,0000000.000s, 026.4C,00002195
2016-03-26 17:31:02 r, 00.00m,0000563671Hz,0000000000c,0000000.000s, 026.1C,00002195
2016-03-26 17:41:01 r, 00.00m,0000563654Hz,0000000000c,0000000.000s, 025.7C,00002195
2016-03-26 17:51:04 r, 00.00m,0000563644Hz,0000000000c,0000000.000s, 025.4C,00002195
2016-03-26 18:01:02 r, 00.00m,0000563612Hz,0000000000c,0000000.000s, 025.4C,00002195
2016-03-26 18:11:01 r, 00.00m,0000563516Hz,0000000000c,0000000.000s, 025.1C,00002195
2016-03-26 18:21:01 r, 00.00m,0000563495Hz,0000000000c,0000000.000s, 024.8C,00002195
2016-03-26 18:31:02 r, 00.00m,0000563388Hz,0000000000c,0000000.000s, 023.8C,00002195
2016-03-26 18:41:04 r, 00.00m,0000563256Hz,0000000000c,0000000.000s, 023.2C,00002195
2016-03-26 18:51:01 r, 00.00m,0000563277Hz,0000000000c,0000000.000s, 022.8C,00002195
2016-03-26 19:01:01 r, 00.00m,0000553064Hz,0000000000c,0000000.000s, 022.2C,00002195
2016-03-26 19:11:01 r, 00.00m,0000430620Hz,0000000000c,0000000.000s, 020.9C,00002195
2016-03-26 19:21:01 r, 06.00m,0000352304Hz,0000000000c,0000000.000s, 020.3C,00002195
2016-03-26 19:31:02 r, 05.94m,0000376770Hz,0000000000c,0000000.000s, 019.6C,00002195
2016-03-26 19:41:01 r, 06.65m,0000194197Hz,0000000000c,0000000.000s, 019.6C,00002195
2016-03-26 19:51:04 r, 07.56m,0000084838Hz,0000000000c,0000000.000s, 019.3C,00002195
2016-03-26 20:01:02 r, 09.09m,0000020633Hz,0000000000c,0000000.000s, 019.3C,00002195
2016-03-26 20:11:01 r, 11.10m,0000003235Hz,0000000000c,0000000.000s, 019.3C,00002195
2016-03-26 20:21:04 r, 13.13m,0000000496Hz,0000000000c,0000000.000s, 019.3C,00002195
2016-03-26 20:31:02 r, 14.56m,0000000133Hz,0000000000c,0000000.000s, 019.3C,00002195
2016-03-26 20:41:01 r, 15.01m,0000000087Hz,0000005256c,0000000.011s, 019.3C,00002195
2016-03-26 20:51:03 r, 15.45m,0000000059Hz,0000007930c,0000000.017s, 019.3C,00002195
2016-03-26 21:01:01 r, 15.63m,0000000050Hz,0000009297c,0000000.020s, 019.3C,00002195
2016-03-26 21:11:01 r, 15.42m,0000000060Hz,0000007669c,0000000.017s, 019.3C,00002195
2016-03-26 21:21:02 r, 15.60m,0000000051Hz,0000009068c,0000000.020s, 019.3C,00002195
2016-03-26 21:31:01 r, 15.98m,0000000036Hz,0000012864c,0000000.028s, 019.0C,00002195
2016-03-26 21:41:02 r, 16.14m,0000000031Hz,0000014890c,0000000.032s, 019.0C,00002195
2016-03-26 21:51:02 r, 16.20m,0000000029Hz,0000015744c,0000000.034s, 019.0C,00002195
2016-03-26 22:01:04 r, 16.20m,0000000029Hz,0000015729c,0000000.034s, 019.0C,00002195
2016-03-26 22:11:01 r, 16.36m,0000000025Hz,0000018267c,0000000.040s, 019.0C,00002195
2016-03-26 22:21:02 r, 17.40m,0000000010Hz,0000047395c,0000000.103s, 018.6C,00002195
2016-03-26 22:31:03 r, 17.09m,0000000013Hz,0000035949c,0000000.078s, 018.6C,00002195
2016-03-26 22:41:01 r, 18.12m,0000000005Hz,0000092145c,0000000.200s, 018.6C,00002195
2016-03-26 22:51:01 r, 18.08m,0000000005Hz,0000089283c,0000000.194s, 018.3C,00002195
2016-03-26 23:01:03 r, 17.93m,0000000006Hz,0000077797c,0000000.169s, 018.0C,00002195
2016-03-26 23:11:01 r, 17.55m,0000000009Hz,0000054634c,0000000.119s, 018.0C,00002195
2016-03-26 23:21:01 r, 17.45m,0000000009Hz,0000049703c,0000000.108s, 017.7C,00002195
2016-03-26 23:31:01 r, 17.35m,0000000010Hz,0000045259c,0000000.098s, 017.7C,00002195
2016-03-26 23:41:01 r, 17.10m,0000000013Hz,0000036121c,0000000.078s, 017.7C,00002195
2016-03-26 23:51:01 r, 16.41m,0000000024Hz,0000019140c,0000000.042s, 017.7C,00002195
